Find Local Weather

World > North America > United States > Nevada

Pyramid, Nevada Regional Weather

Lat: 40.08N, Lon: 119.7W
Wx Zone: NVZ004
Feedback

Pyramid, NV Regional Weather

Expires:201905192100;;130765
ASUS45 KREV 192010
RWRNV 
NEVADA REGIONAL WEATHER ROUNDUP
NATIONAL WEATHER SERVICE RENO NV
100 PM PDT SUN MAY 19 2019

NOTE: "FAIR" INDICATES FEW OR NO CLOUDS BELOW 12,000 FEET WITH NO
SIGNIFICANT WEATHER AND/OR OBSTRUCTIONS TO VISIBILITY.


NVZ001-003-004-192100-
WESTERN NEVADA
  
CITY           SKY/WX    TMP DP  RH WIND       PRES   REMARKS
RENO           PTSUNNY   51  25  36 VRB6      29.69R                  
CARSON CITY    FAIR      50  27  40 E8        29.68F                  
MINDEN         PTSUNNY   46  25  42 E12       29.70F                  
SLIDE MTN        N/A     25  23  93 W20         N/A                   
PYRAMID LAKE     N/A     50 N/A N/A N15         N/A                   
FALLON         CLOUDY    50  37  61 W13       29.68R                  
LOVELOCK       CLOUDY    49  37  63 N12       29.68R                  
HAWTHORNE      PTSUNNY   52  34  50 N18G26    29.65R                  
$$


SKY/WX - Weather  TMP - Temperature  DP - Dew Point  RH - Relative Humidity
WIND - Wind Direction/Speed PRES - Barometric Pressure VSB - Visibility
WCI - Wind Chill Index E13G22 Wind - East Wind 13 mph/Gusts of 22 mph